FW3157 Weather Reports


time (UTC)temp
C
wind
direction
speed
KPH
gust
KPH
rain 1hr
cm
rain 24hr
cm
rain mn
cm
humidity
%
barometer
mb
20260502193902 12 285 6.4 14.5 0.00 0.00 0.15 76 1020.0
20260502193359 12 298 4.8 14.5 0.00 0.00 0.15 74 1020.0
20260502192900 12 269 3.2 12.9 0.00 0.00 0.15 69 1020.1
20260502192400 12 98 1.6 4.8 0.00 0.00 0.15 70 1020.0
20260502192125 12 98 1.6 3.2 0.00 0.00 0.15 69 1019.8
20260502191359 12 98 1.6 4.8 0.00 0.00 0.15 69 1019.7
20260502190856 12 98 3.2 6.4 0.00 0.00 0.15 69 1019.7
20260502190354 12 98 1.6 6.4 0.00 0.00 0.15 69 1019.6
20260502185853 12 98 1.6 4.8 0.00 0.00 0.15 70 1019.5
20260502185354 12 98 3.2 6.4 0.00 0.00 0.15 70 1019.5
20260502184854 12 98 3.2 6.4 0.00 0.00 0.15 69 1019.5
20260502184618 12 94 1.6 6.4 0.00 0.00 0.15 68 1019.4
20260502183853 12 94 1.6 4.8 0.00 0.00 0.15 67 1019.4
20260502183347 12 94 3.2 4.8 0.00 0.00 0.15 67 1019.2
20260502182845 12 94 3.2 6.4 0.00 0.00 0.15 67 1019.2
20260502182346 12 113 3.2 6.4 0.00 0.00 0.15 66 1019.2
20260502181844 12 116 3.2 6.4 0.00 0.00 0.15 65 1019.0
20260502181342 12 110 1.6 6.4 0.00 0.00 0.15 64 1019.0
20260502180841 13 90 1.6 6.4 0.00 0.00 0.15 62 1018.8
20260502180342 13 111 1.6 6.4 0.00 0.00 0.15 60 1018.8
20260502170335 15 101 1.6 8.0 0.00 0.00 0.15 53 1019.0
20260502164332 14 129 1.6 4.8 0.00 0.00 0.15 50 1018.7
20260502163831 14 185 1.6 8.0 0.00 0.00 0.15 50 1018.6
20260502163331 14 153 3.2 9.7 0.00 0.00 0.15 50 1018.5
20260502162832 14 117 3.2 9.7 0.00 0.00 0.15 52 1018.5
20260502162331 14 166 3.2 11.3 0.00 0.00 0.15 53 1018.5
20260502161831 14 93 4.8 16.1 0.00 0.00 0.15 53 1018.4
20260502161332 14 65 6.4 16.1 0.00 0.00 0.15 53 1018.4
20260502160830 14 103 8.0 19.3 0.00 0.00 0.15 53 1018.4
20260502160329 14 110 6.4 19.3 0.00 0.00 0.15 54 1018.5
20260502152253 15 16 3.2 12.9 0.00 0.00 0.15 45 1018.6
20260502151747 15 33 4.8 11.3 0.00 0.00 0.15 46 1018.6
20260502151246 14 95 4.8 9.7 0.00 0.00 0.15 47 1018.5
20260502150746 14 101 8.0 29.0 0.00 0.00 0.15 54 1018.5
20260502150241 14 347 14.5 32.2 0.00 0.00 0.15 50 1018.8
20260502130659 16 232 4.8 11.3 0.00 0.00 0.15 44 1019.3
20260502130159 16 221 3.2 8.0 0.00 0.00 0.15 43 1019.3
20260502123658 15 267 6.4 12.9 0.00 0.00 0.15 45 1019.5
20260502123425 15 253 4.8 12.9 0.00 0.00 0.15 43 1019.6
20260502122657 16 204 6.4 12.9 0.00 0.00 0.15 43 1019.5
20260502122157 16 265 4.8 14.5 0.00 0.00 0.15 39 1019.6
20260502121916 16 260 4.8 12.9 0.00 0.00 0.15 42 1019.5
20260502121157 16 294 3.2 9.7 0.00 0.00 0.15 38 1019.7
20260502120922 16 269 3.2 9.7 0.00 0.00 0.15 38 1019.8
20260502120157 16 266 3.2 9.7 0.00 0.00 0.15 39 1019.8
20260502120145 16 219 1.6 9.7 0.00 0.00 0.15 39 1019.9
20260502115156 15 271 3.2 11.3 0.00 0.00 0.15 39 1020.0
20260502114651 15 296 4.8 11.3 0.00 0.00 0.15 39 1020.1
20260502114145 15 264 6.4 11.3 0.00 0.00 0.15 41 1020.1
20260502113639 15 319 8.0 16.1 0.00 0.00 0.15 41 1020.2
20260502113133 15 265 6.4 16.1 0.00 0.00 0.15 41 1020.3
20260502112633 15 310 6.4 12.9 0.00 0.00 0.15 41 1020.3
20260502112127 15 251 6.4 12.9 0.00 0.00 0.15 44 1020.4
20260502111855 15 306 6.4 4.8 0.00 0.00 0.15 44 1020.5
20260502101449 13 275 8.0 14.5 0.00 0.23 0.15 48 1021.1
20260502100949 13 260 8.0 16.1 0.00 0.23 0.15 49 1021.2
20260502100711 13 266 11.3 16.1 0.00 0.23 0.15 48 1021.2
20260502091358 13 256 6.4 12.9 0.00 0.23 0.15 49 1021.5
20260502090859 13 258 9.7 16.1 0.00 0.23 0.15 51 1021.5
20260502090609 13 278 9.7 19.3 0.00 0.23 0.15 50 1021.6
20260502070838 12 314 8.0 16.1 0.00 0.23 0.15 69 1022.5
20260502070339 12 290 6.4 16.1 0.00 0.23 0.15 68 1022.5
20260502065839 11 312 6.4 12.9 0.00 0.23 0.15 70 1022.5
20260502065339 11 282 6.4 14.5 0.00 0.23 0.15 70 1022.5
20260502064838 11 307 6.4 14.5 0.00 0.23 0.15 74 1022.5
20260502064339 11 288 4.8 11.3 0.00 0.23 0.15 75 1022.5
20260502063837 11 257 4.8 9.7 0.00 0.23 0.15 77 1022.6
20260502063556 11 296 4.8 11.3 0.00 0.23 0.15 78 1022.6
20260502062837 11 293 4.8 11.3 0.00 0.23 0.15 79 1022.6
20260502062337 11 321 6.4 12.9 0.00 0.23 0.15 80 1022.6
20260502061837 11 275 6.4 12.9 0.00 0.23 0.15 80 1022.6
20260502061601 11 291 6.4 11.3 0.00 0.23 0.15 80 1022.6
20260502060836 10 297 6.4 11.3 0.00 0.23 0.15 80 1022.7
20260502060336 10 311 6.4 11.3 0.00 0.23 0.15 80 1022.7
20260502055834 11 280 6.4 11.3 0.00 0.23 0.15 79 1022.6
20260502055334 10 321 4.8 11.3 0.00 0.23 0.15 78 1022.6
20260502054834 10 306 4.8 11.3 0.00 0.23 0.15 78 1022.7
20260502054335 10 304 4.8 11.3 0.00 0.23 0.15 78 1022.7
20260502053835 10 306 4.8 9.7 0.00 0.23 0.15 79 1022.7
20260502053334 10 309 4.8 9.7 0.00 0.23 0.15 80 1022.8
20260502052832 10 313 6.4 11.3 0.00 0.23 0.15 79 1022.8
20260502052332 10 304 6.4 11.3 0.00 0.23 0.15 79 1022.7
20260502051833 10 289 6.4 11.3 0.00 0.23 0.15 80 1022.7
20260502051332 10 297 6.4 11.3 0.00 0.23 0.15 80 1022.7
20260502050826 10 309 4.8 9.7 0.00 0.23 0.15 80 1022.7
20260502050546 10 281 4.8 9.7 0.00 0.23 0.15 80 1022.6
20260502045814 10 280 3.2 9.7 0.00 0.23 0.15 80 1022.6
20260502045308 10 310 4.8 8.0 0.00 0.23 0.15 80 1022.6
20260502044802 10 310 3.2 8.0 0.00 0.23 0.15 80 1022.5
20260502044255 10 283 3.2 6.4 0.00 0.23 0.15 77 1022.5
20260502044017 10 267 3.2 8.0 0.00 0.23 0.15 77 1022.5
20260502043244 10 312 1.6 8.0 0.00 0.23 0.15 77 1022.5
20260502042738 10 316 1.6 4.8 0.00 0.23 0.15 77 1022.5
20260502042454 10 316 3.2 8.0 0.00 0.23 0.15 77 1022.4
20260502041726 10 27 3.2 8.0 0.00 0.23 0.15 77 1022.3
20260502041219 10 13 3.2 9.7 0.00 0.23 0.15 78 1022.3
20260502040721 10 312 4.8 9.7 0.00 0.23 0.15 79 1022.3
20260502040207 9 46 3.2 11.3 0.00 0.23 0.15 81 1022.3
20260502035701 10 315 4.8 11.3 0.00 0.23 0.15 81 1022.2
20260502035155 10 335 6.4 12.9 0.00 0.23 0.15 81 1022.3
20260502034916 9 303 4.8 12.9 0.00 0.23 0.15 78 1022.2
20260502034143 9 304 3.2 8.0 0.00 0.23 0.15 75 1022.2
20260502033638 9 315 3.2 8.0 0.00 0.23 0.15 75 1022.1
20260502033131 9 96 1.6 4.8 0.00 0.23 0.15 76 1022.1
20260502032626 9 96 1.6 4.8 0.00 0.23 0.15 76 1022.0
20260502032119 9 96 1.6 3.2 0.00 0.23 0.15 76 1022.0
20260502031614 9 96 1.6 3.2 0.00 0.23 0.15 77 1022.0
20260502031108 9 96 1.6 3.2 0.00 0.23 0.15 77 1022.0
20260502030601 9 96 1.6 4.8 0.00 0.23 0.15 78 1022.0
20260502030055 9 96 1.6 4.8 0.00 0.23 0.15 78 1022.1
20260502025548 9 96 1.6 4.8 0.00 0.23 0.15 78 1022.1
20260502025042 9 98 1.6 4.8 0.00 0.23 0.15 79 1022.0
20260502024536 9 79 1.6 4.8 0.00 0.23 0.15 79 1022.0
20260502024029 9 51 1.6 3.2 0.00 0.23 0.15 79 1022.1
20260502023524 9 52 0.0 3.2 0.00 0.23 0.15 79 1022.1
20260502023018 9 52 0.0 3.2 0.00 0.23 0.15 80 1022.1
20260502023009 9 52 1.6 3.2 0.00 0.23 0.15 80 1022.2
20260502022235 10 66 1.6 6.4 0.00 0.23 0.15 79 1022.2
20260502021501 10 51 3.2 6.4 0.00 0.23 0.15 77 1022.2
20260502020954 10 34 3.2 6.4 0.00 0.23 0.15 74 1022.2
20260502020448 10 25 3.2 8.0 0.00 0.23 0.15 74 1022.2
20260502015942 10 36 3.2 8.0 0.00 0.23 0.15 76 1022.3
20260502015436 10 49 3.2 6.4 0.00 0.23 0.15 78 1022.3
20260502014930 10 298 3.2 6.4 0.00 0.23 0.15 78 1022.3
20260502014424 10 301 4.8 9.7 0.00 0.23 0.15 77 1022.4
20260502013917 10 305 4.8 9.7 0.00 0.23 0.15 77 1022.6
20260502013412 10 316 4.8 11.3 0.00 0.23 0.15 77 1022.6
20260502012905 10 299 3.2 11.3 0.00 0.23 0.15 79 1022.7
20260502012359 10 298 3.2 6.4 0.00 0.23 0.15 80 1022.7
20260502011853 10 304 3.2 6.4 0.00 0.23 0.15 80 1022.8
20260502011608 9 321 1.6 4.8 0.00 0.23 0.15 80 1022.7
20260502010841 9 321 1.6 3.2 0.00 0.23 0.15 80 1022.8
20260502010557 9 321 1.6 4.8 0.00 0.23 0.15 80 1022.7
20260502005829 9 321 3.2 8.0 0.00 0.23 0.15 79 1022.7
20260502005329 9 321 3.2 8.0 0.00 0.23 0.15 79 1022.7
20260502004830 9 328 3.2 6.4 0.00 0.23 0.15 79 1022.7
20260502004330 9 340 3.2 8.0 0.00 0.23 0.15 78 1022.6
20260502004050 9 333 4.8 8.0 0.00 0.23 0.15 78 1022.6
20260502003330 9 310 4.8 8.0 0.00 0.23 0.15 79 1022.7
20260502002830 9 31 4.8 8.0 0.00 0.23 0.15 80 1022.7
20260502002329 10 297 4.8 11.3 0.00 0.23 0.15 81 1022.7
20260502001830 10 12 4.8 11.3 0.00 0.23 0.15 81 1022.8
20260502001329 10 304 4.8 11.3 0.00 0.23 0.15 80 1022.8
20260502001322 10 25 4.8 9.7 0.00 0.23 0.15 81 1022.8
20260502000332 9 18 4.8 9.7 0.00 0.23 0.15 81 1022.9
20260502000100 9 30 4.8 9.7 0.00 0.23 0.15 82 1022.9
20260501235553 9 328 4.8 9.7 0.00 0.23 0.15 82 1022.9
20260501234830 9 13 6.4 11.3 0.00 0.23 0.15 82 1023.0
20260501234549 9 30 6.4 11.3 0.00 0.23 0.15 82 1023.0
20260501233826 9 30 4.8 9.7 0.00 0.23 0.15 81 1023.1
20260501233326 9 37 4.8 8.0 0.00 0.23 0.15 81 1023.1
20260501232820 9 19 4.8 8.0 0.00 0.23 0.15 80 1023.1
20260501232314 9 56 4.8 9.7 0.00 0.23 0.15 80 1023.2
20260501231807 9 13 4.8 9.7 0.00 0.23 0.15 79 1023.2
20260501231308 9 16 4.8 9.7 0.00 0.23 0.15 79 1023.2
20260501230808 9 355 4.8 8.0 0.03 0.23 0.15 79 1023.2
20260501230536 10 328 4.8 9.7 0.03 0.23 0.15 78 1023.3
20260501225808 10 13 4.8 9.7 0.03 0.23 0.15 77 1023.3
20260501225528 9 34 3.2 8.0 0.05 0.23 0.15 77 1023.4
20260501224806 9 350 3.2 8.0 0.08 0.23 0.15 77 1023.5
20260501224306 9 309 3.2 8.0 0.10 0.23 0.15 76 1023.4
20260501224029 9 323 3.2 8.0 0.13 0.23 0.15 77 1023.5
20260501223306 9 322 3.2 6.4 0.15 0.23 0.15 77 1023.5
20260501222804 9 295 3.2 6.4 0.15 0.23 0.15 76 1023.6
20260501222305 9 290 3.2 6.4 0.15 0.23 0.15 77 1023.7
20260501221803 9 297 3.2 8.0 0.15 0.23 0.15 77 1023.7
20260501221302 9 285 4.8 9.7 0.15 0.23 0.15 75 1023.8
20260501220800 9 264 4.8 9.7 0.15 0.20 0.15 76 1023.8
20260501220259 9 286 3.2 9.7 0.15 0.20 0.15 75 1023.9
20260501215755 9 336 8.0 22.5 0.15 0.20 0.15 77 1024.0
20260501215256 9 49 11.3 25.7 0.10 0.15 0.10 77 1024.2
20260501214756 10 34 8.0 25.7 0.08 0.15 0.08 79 1024.1
20260501214256 10 83 3.2 8.0 0.05 0.13 0.05 80 1023.9
20260501213756 10 69 3.2 8.0 0.05 0.10 0.05 79 1023.7
20260501213256 10 352 3.2 8.0 0.03 0.08 0.03 82 1023.6
20260501212756 10 75 1.6 6.4 0.03 0.08 0.03 82 1023.6
20260501212735 11 80 3.2 6.4 0.03 0.08 0.03 82 1023.7
20260501211756 11 46 4.8 9.7 0.00 0.05 0.00 81 1023.7
20260501211252 11 87 4.8 9.7 0.00 0.05 0.00 82 1023.7
20260501210751 11 69 3.2 8.0 0.00 0.05 0.00 82 1023.7
20260501210251 11 70 1.6 6.4 0.00 0.05 0.00 81 1023.6
20260501205751 11 91 1.6 4.8 0.00 0.05 0.05 81 1023.5
20260501205252 11 90 1.6 4.8 0.00 0.05 0.05 82 1023.6
20260501204752 11 89 1.6 4.8 0.00 0.05 0.05 81 1023.5
20260501204250 11 89 1.6 4.8 0.00 0.05 0.05 81 1023.5
20260501203747 11 89 1.6 4.8 0.00 0.05 0.05 80 1023.5
20260501203247 11 89 1.6 4.8 0.00 0.05 0.05 80 1023.5
20260501202746 11 89 1.6 4.8 0.00 0.05 0.05 80 1023.5
20260501202244 11 90 1.6 4.8 0.00 0.05 0.05 80 1023.5
20260501201742 11 96 3.2 4.8 0.00 0.05 0.05 80 1023.5
20260501201241 11 90 1.6 4.8 0.00 0.05 0.05 80 1023.4
20260501200740 11 103 1.6 4.8 0.00 0.05 0.05 81 1023.5
20260501200238 11 103 3.2 6.4 0.00 0.05 0.05 81 1023.5
20260501195738 11 101 1.6 6.4 0.00 0.05 0.05 81 1023.5
20260501195238 11 85 1.6 6.4 0.00 0.05 0.05 81 1023.5
20260501194738 11 54 0.0 3.2 0.00 0.05 0.05 81 1023.5
20260501194238 11 54 1.6 3.2 0.00 0.05 0.05 80 1023.5